User: anonymous   Login
Location: The Saddle
(36.8333°N, 80.3417°W)
Time: 05:12:42
(UTC-04:00)
Language:

AO-7 - Orbit

View from above orbital plane
View from above orbital plane
View from above satellite
View from above satellite

Ground track
Ground track

The orbit data is extracted from the following two-line orbital elements,

1  7530U 74089B   25197.98367436 -.00000048  00000-0 -86976-5 0  9998
2  7530 101.9938 202.6464 0012565  52.0436 334.3936 12.53690150318758
Epoch (UTC): 16 July 2025 23:36:29
Eccentricity: 0.0012565
inclination: 101.9938°
perigee height: 1439 km
apogee height: 1459 km
right ascension of ascending node: 202.6464°
argument of perigee: 52.0436°
revolutions per day: 12.53690150
mean anomaly at epoch: 334.3936°
orbit number at epoch: 31875

The dashed part of the orbit path shows where the satellite is in the earth's shadow,  

DLR